Regional Weather Roundup
Issued by NWS

Home | Current Version | Previous Version | Text Only | Print | Product List | Glossary On
Versions: 1 2 3 4 5 6 7 8 9 10 11 12 13 14 15 16 17 18 19 20 21 22 23 24 25 26 27 28 29 30 31 32 33 34 35 36 37 38 39 40 41 42 43 44 45 46 47 48 49 50
000
ASUS43 KOAX 180002
RWRNE

WEATHER ROUNDUP FOR NEBRASKA
NATIONAL WEATHER SERVICE OMAHA NE
600 PM CST FRI NOV 17 2017

NOTES: SATELLITE DATA IS BEING USED TO AUGMENT CLOUD COVER ABOVE
       12000 FEET.
       "FAIR" INDICATES FEW OR NO CLOUDS BELOW 12,000 FEET WITH NO
       SIGNIFICANT WEATHER AND/OR OBSTRUCTIONS TO VISIBILITY.


NEZ001>004-019>022-054>056-180100-
NEBRASKA PANHANDLE

CITY           SKY/WX    TMP DP  RH WIND       PRES   REMARKS
SCOTTSBLUFF    CLOUDY    45  37  73 CALM      29.66R
6HR MIN TEMP:  45; 6HR MAX TEMP:  52; 6HR PCP:  0.01;

ALLIANCE       CLOUDY    38  38 100 S3        29.65R
6HR MIN TEMP:  38; 6HR MAX TEMP:  50; 6HR PCP:  0.01;

CHADRON        CLOUDY    41  37  86 W6        29.66R
6HR MIN TEMP:  41; 6HR MAX TEMP:  45; 6HR PCP:  0.02;

GORDON         DRIZZLE   40  32  71 CALM      29.65S
6HR MIN TEMP:  40; 6HR MAX TEMP:  44;

KIMBALL        RAIN      43  39  87 NW18G25   29.70R
SIDNEY         LGT RAIN  43  38  82 N12       29.67R
6HR MIN TEMP:  43; 6HR MAX TEMP:  57; 6HR PCP: TRACE;

$$

NEZ057>060-069>072-079>082-180100-
SOUTHWEST NEBRASKA

CITY           SKY/WX    TMP DP  RH WIND       PRES   REMARKS
NORTH PLATTE   PTCLDY    47  32  56 N14       29.62R
6HR MIN TEMP:  47; 6HR MAX TEMP:  58;

LEXINGTON      PTCLDY    47  33  57 N13       29.59R
MCCOOK         CLOUDY    52  33  48 N12       29.57R
6HR MIN TEMP:  52; 6HR MAX TEMP:  64; 6HR PCP: TRACE;

OGALLALA       CLEAR     48  29  47 NE14      29.63R
$$

NEZ005>010-023>029-035>040-094-180100-
NORTH CENTRAL NEBRASKA

CITY           SKY/WX    TMP DP  RH WIND       PRES   REMARKS
VALENTINE      CLOUDY    43  33  68 N7        29.67R
6HR MIN TEMP:  43; 6HR MAX TEMP:  49;

AINSWORTH      CLOUDY    41  38  87 N3        29.67R
BROKEN BOW     PTCLDY    48  30  49 N13       29.59R
6HR MIN TEMP:  47; 6HR MAX TEMP:  52;

O`NEILL        RAIN      42  40  93 N8        29.64R
ORD            CLOUDY    47  32  56 N12       29.59R
6HR MIN TEMP:  47; 6HR MAX TEMP:  52;

THEDFORD       CLOUDY    45  36  70 CALM      29.65F
$$

NEZ041-046>049-061>064-073>077-083>087-180100-
SOUTH CENTRAL NEBRASKA

CITY           SKY/WX    TMP DP  RH WIND       PRES   REMARKS
GRAND ISLAND   PTCLDY    47  36  65 N9        29.59R
6HR MIN TEMP:  45; 6HR MAX TEMP:  59; 6HR PCP: TRACE;

AURORA         CLOUDY    46  34  63 N9        29.58R
HASTINGS       CLOUDY    47  34  60 N9        29.58R
6HR MIN TEMP:  47; 6HR MAX TEMP:  60;

HEBRON         PTCLDY    57  48  71 N9        29.51R
HOLDREGE       CLOUDY    48  35  61 NE14      29.56S
KEARNEY        PTCLDY    47  34  60 N13       29.60R
YORK           CLOUDY    46  37  71 N8        29.57R
$$

NEZ011>018-030>034-042>045-180100-
NORTHEAST NEBRASKA

CITY           SKY/WX    TMP DP  RH WIND       PRES   REMARKS
NORFOLK        PTCLDY    46  36  68 N17G26    29.57R
6HR MIN TEMP:  46; 6HR MAX TEMP:  55;

ALBION         CLOUDY    47  35  63 N13       29.59R
BLAIR          PTCLDY    54  46  73 N10       29.54R
COLUMBUS       CLOUDY    48  36  63 N13       29.59R
FREMONT        CLOUDY    49  37  61 NW6       29.57R
TEKAMAH        CLOUDY    50  39  66 NW12      29.56R
6HR MIN TEMP:  50; 6HR MAX TEMP:  61;

WAYNE          CLOUDY    47  36  63 N16       29.60R
$$

NEZ050>053-065>068-078-088>093-180100-
SOUTHEAST NEBRASKA

CITY           SKY/WX    TMP DP  RH WIND       PRES   REMARKS
LINCOLN        CLOUDY    54  43  66 N9        29.54R
6HR MIN TEMP:  54; 6HR MAX TEMP:  66;

OMAHA EPPLEY   CLOUDY    57  51  80 N8        29.53R
6HR MIN TEMP:  56; 6HR MAX TEMP:  61;

BEATRICE       CLEAR     59  51  75 N13       29.50R
FALLS CITY     CLEAR     58  54  86 E6        29.47S
6HR MIN TEMP:  58; 6HR MAX TEMP:  67;

NEBRASKA CITY  CLOUDY    60  57  89 NE7       29.49F
PLATTSMOUTH    CLOUDY    58  55  90 NE6       29.52R
$$

NEZ044-045-051>053-067-180100-
OMAHA AREA

CITY           SKY/WX    TMP DP  RH WIND       PRES   REMARKS
OMAHA EPPLEY   CLOUDY    57  51  80 N8        29.53R
6HR MIN TEMP:  56; 6HR MAX TEMP:  61;

BLAIR          PTCLDY    54  46  73 N10       29.54R
FREMONT        CLOUDY    49  37  61 NW6       29.57R
MILLARD        CLOUDY    58  48  67 N3        29.53R
OFFUTT AFB     CLOUDY    57  53  86 N6        29.52R
PLATTSMOUTH    CLOUDY    58  55  90 NE6       29.52R
WAHOO          FAIR      51  39  63 N10       29.56R
$$




USA.gov is the U.S. government's official web portal to all federal, state and local government web resources and services.